Gary, IN

2:32 PM CDT on September 20, 2017 (GMT -0500)
Gary / Chicago

Weather History for KGYY - February, 2014

Change the Weather History Date:

Thursday, February 6, 2014

  Actual Average Record
Temperature  
Mean Temperature 6 °F -  
Max Temperature 11 °F 30 °F 57 °F (2017)
Min Temperature 0 °F 13 °F -8 °F (1977)
Degree Days  
Heating Degree Days 60    
Moisture  
Dew Point -3 °F    
Average Humidity 71    
Maximum Humidity 87    
Minimum Humidity 56    
Precipitation  
Precipitation 0.00 in - - ()
Sea Level Pressure  
Sea Level Pressure 30.41 in    
Wind  
Wind Speed 7 mph (WSW)    
Max Wind Speed 18 mph    
Max Gust Speed -    
Visibility 10 miles    
Events Snow    
Averages and records for this station are not official NWS values.
T = Trace of Precipitation, MM = Missing Value Source: NWS Daily Summary

Daily Weather History Graph

Daily Weather History Graph

Search for Another Location

Airport or City:

Trip Planner

Search our weather history database for the weather conditions in past years. The results will help you decide how hot, cold, wet, or windy it might be!

Date:

Astronomy

Feb. 06, 2014 Rise Set
Actual Time 6:56 AM CST 5:11 PM CST
Civil Twilight 6:27 AM CST 5:40 PM CST
Nautical Twilight 5:54 AM CST 6:13 PM CST
Astronomical Twilight 5:21 AM CST 6:46 PM CST
Moon 10:43 AM CST (2/6) 12:11 AM CST (2/6)
Length of Visible Light 11h 13m
Length of Day
10h 15m
Waxing Crescent, 49% of the Moon is Illuminated
Feb 6
Waxing Crescent
Feb 6
First Quarter
Feb 14
Full
Feb 22
Last Quarter
Mar 1
New

Hourly Weather History & Observations

Time (CST) Temp. Windchill Dew Point Humidity Pressure Visibility Wind Dir Wind Speed Gust Speed Precip Events Conditions
12:15 AM 6.4 °F - 1.6 °F 80% 30.43 in 10.0 mi Calm Calm - N/A   Clear
12:35 AM 9.9 °F 0.2 °F 6.6 °F 87% 30.43 in 10.0 mi WSW 5.8 mph - N/A   Scattered Clouds
12:55 AM 11.7 °F 5.5 °F 7.7 °F 84% 30.42 in 10.0 mi WSW 3.5 mph - N/A   Scattered Clouds
1:15 AM 11.3 °F 1.9 °F 7.2 °F 83% 30.42 in 10.0 mi WSW 5.8 mph - N/A Snow Light Snow
1:35 AM 11.1 °F 4.9 °F 7.2 °F 84% 30.41 in 10.0 mi WSW 3.5 mph - N/A   Clear
1:55 AM 10.4 °F 2.2 °F 6.4 °F 84% 30.41 in 10.0 mi WSW 4.6 mph - N/A   Scattered Clouds
2:15 AM 9.5 °F 3.0 °F 5.7 °F 85% 30.42 in 10.0 mi WSW 3.5 mph - N/A   Scattered Clouds
2:35 AM 9.5 °F 3.0 °F 5.4 °F 83% 30.41 in 10.0 mi WSW 3.5 mph - N/A   Scattered Clouds
2:55 AM 8.6 °F 0.1 °F 4.6 °F 84% 30.41 in 10.0 mi WSW 4.6 mph - N/A   Clear
3:15 AM 8.2 °F -1.8 °F 4.1 °F 83% 30.41 in 10.0 mi WSW 5.8 mph - N/A Snow Light Snow
3:35 AM 8.4 °F -2.8 °F 3.9 °F 82% 30.41 in 10.0 mi WSW 6.9 mph - N/A Snow Light Snow
4:45 AM 8.6 °F -6.3 °F 1.4 °F 73% 30.41 in 10.0 mi West 11.5 mph - N/A Snow Light Snow
5:45 AM 5.0 °F -9.1 °F -0.4 °F 78% 30.40 in 10.0 mi West 9.2 mph - N/A   Scattered Clouds
6:45 AM 3.2 °F -11.3 °F -4.0 °F 72% 30.40 in 10.0 mi WSW 9.2 mph - N/A   Partly Cloudy
7:45 AM 1.4 °F -16.9 °F -4.0 °F 78% 30.43 in 10.0 mi West 13.8 mph - N/A   Partly Cloudy
8:45 AM 1.4 °F -16.9 °F -5.8 °F 72% 30.43 in 10.0 mi West 13.8 mph - N/A   Partly Cloudy
9:45 AM 3.2 °F -14.6 °F -5.8 °F 66% 30.45 in 10.0 mi West 13.8 mph - N/A   Partly Cloudy
11:45 AM 6.8 °F -10.7 °F -4.0 °F 61% 30.44 in 10.0 mi West 15.0 mph - N/A   Partly Cloudy
12:45 PM 6.8 °F -10.7 °F -4.0 °F 61% 30.41 in 12.0 mi WNW 15.0 mph - N/A   Clear
1:45 PM 8.6 °F -10.0 °F -4.0 °F 57% 30.40 in 12.0 mi NW 18.4 mph - N/A   Clear
2:45 PM 6.8 °F -11.8 °F -5.8 °F 56% 30.39 in 10.0 mi West 17.3 mph - N/A   Clear
3:45 PM 6.8 °F -10.0 °F -5.8 °F 56% 30.38 in 10.0 mi West 13.8 mph - N/A   Clear
4:45 PM 5.0 °F -14.7 °F -5.8 °F 61% 30.38 in 10.0 mi WNW 18.4 mph - N/A   Clear
5:45 PM 3.2 °F -15.3 °F -5.8 °F 66% 30.40 in 10.0 mi West 15.0 mph - N/A   Clear
6:45 PM 3.2 °F -16.5 °F -7.6 °F 61% 30.41 in 10.0 mi West 17.3 mph - N/A   Clear
7:45 PM 3.2 °F -13.9 °F -7.6 °F 61% 30.41 in 10.0 mi West 12.7 mph - N/A   Clear
8:15 PM 2.3 °F -11.4 °F -6.7 °F 66% 30.41 in 10.0 mi SW 8.1 mph - N/A   Clear
8:35 PM 1.9 °F -11.8 °F -6.7 °F 67% 30.41 in 10.0 mi WSW 8.1 mph - N/A   Clear
8:45 PM 1.4 °F -16.9 °F -5.8 °F 72% 30.41 in 10.0 mi West 13.8 mph - N/A   Clear
8:55 PM 1.8 °F -12.0 °F -6.2 °F 69% 30.41 in 10.0 mi SW 8.1 mph - N/A   Clear
9:15 PM 1.9 °F -13.8 °F -6.0 °F 69% 30.41 in 10.0 mi WSW 10.4 mph - N/A   Clear
9:35 PM 1.9 °F -11.8 °F -6.3 °F 68% 30.41 in 10.0 mi SW 8.1 mph - N/A   Clear
9:45 PM 1.4 °F -16.9 °F -7.6 °F 66% 30.41 in 10.0 mi West 13.8 mph - N/A   Clear
9:55 PM 1.4 °F -9.9 °F -6.7 °F 69% 30.41 in 10.0 mi WSW 5.8 mph - N/A   Clear
10:15 PM 1.4 °F -8.3 °F -6.7 °F 69% 30.41 in 10.0 mi SW 4.6 mph - N/A   Clear
10:35 PM 1.0 °F -6.7 °F -6.9 °F 69% 30.41 in 10.0 mi SSW 3.5 mph - N/A   Clear
10:55 PM 0.5 °F -9.3 °F -7.4 °F 69% 30.41 in 10.0 mi SW 4.6 mph - N/A   Scattered Clouds
11:15 PM 1.2 °F -10.1 °F -6.7 °F 69% 30.41 in 10.0 mi WSW 5.8 mph - N/A   Mostly Cloudy
11:35 PM 1.2 °F -8.5 °F -6.7 °F 69% 30.41 in 10.0 mi WSW 4.6 mph - N/A   Scattered Clouds
11:55 PM 1.0 °F -8.7 °F -6.7 °F 70% 30.41 in 10.0 mi WSW 4.6 mph - N/A   Scattered Clouds